Tracking 27111 objects as of 28-Mar-2023
HD Live streaming from Space Station
objects crossing your sky now

STARLINK-5620

Track STARLINK-5620 now!
10-day predictions
STARLINK-5620 is classified as:


NORAD ID: 55414
Int'l Code: 2023-014Z
Perigee: 364.2 km
Apogee: 368.3 km
Inclination: 70.0 °
Period: 91.7 minutes
Semi major axis: 6737 km
RCS: Unknown
Launch date: January 31, 2023
Source: United States (US)
Launch site: AIR FORCE WESTERN TEST RANGE (AFWTR)
Your satellite tracking list
Your tracking list is empty




NASA's NSSDC Master Catalog

Two Line Element Set (TLE):
1 55414U 23014Z   23087.56239680 -.00000003  00000-0  17417-5 0  9997
2 55414  69.9979 292.5978 0003093 267.6994  92.3848 15.69923892  9917
Source of the keplerian elements: AFSPC